Location: Unspecified
(51.0950°N, 12.9690°E)
Time: 17:26:01
(UTC+00:00)

Cosmos 292 Rocket - Pass Details

Date: 28 October 2021
Orbit: 673 x 693 km, 74.0° (Epoch: 03 December)

Event Time Altitude Azimuth Distance (km) Brightness Sun altitude
Rises 18:14:42 0° 198° (SSW) 3,055 7.2 -23.3°
Reaches altitude 10° 18:17:00 10° 197° (SSW) 2,144 6.4 -23.7°
Enters shadow 18:21:43 78° 131° (SE) 716 3.6 -24.4°
